Location: Staunton
(38.1490°N, 79.0720°W)
Time: 23:49:00
(UTC-05:00)

ISS - Pass Details

Date: 14 November 2018
Orbit: 402 x 408 km, 51.6° (Epoch: 17 November)

Event Time Altitude Azimuth Distance (km) Brightness Sun altitude
Exits shadow 04:23:05 13° 75° (ENE) 1,293 -0.5 -30.1°
Drops below altitude 10° 04:23:37 10° 82° (E) 1,457 -0.1 -30.0°
Sets 04:25:59 0° 98° (E) 2,316 1.2 -29.6°
